TimePDT,TemperatureF,Dew PointF,Humidity,Sea Level PressureIn,VisibilityMPH,Wind Direction,Wind SpeedMPH,Gust SpeedMPH,PrecipitationIn,Events,Conditions,WindDirDegrees,DateUTC
12:51 AM,41.0,37.4,87,29.65,10.0,NE,3.5,-,N/A,,Overcast,50,2012-03-18 07:51:00
12:53 AM,41.0,37.0,86,29.65,10.0,NE,3.5,-,N/A,,Overcast,50,2012-03-18 07:53:00
1:53 AM,41.0,37.0,86,29.65,10.0,NE,4.6,-,N/A,,Overcast,50,2012-03-18 08:53:00
2:53 AM,41.0,37.0,86,29.64,10.0,NE,3.5,-,N/A,,Overcast,50,2012-03-18 09:53:00
3:53 AM,39.9,36.0,86,29.63,10.0,Calm,Calm,-,0.00,,Overcast,0,2012-03-18 10:53:00
4:53 AM,39.0,35.1,86,29.62,10.0,NNW,5.8,-,0.00,Rain,Light Rain,330,2012-03-18 11:53:00
5:53 AM,39.0,36.0,89,29.63,10.0,Calm,Calm,-,0.01,Rain,Light Rain,0,2012-03-18 12:53:00
6:53 AM,37.9,35.1,89,29.64,10.0,Calm,Calm,-,0.03,Rain,Light Rain,0,2012-03-18 13:53:00
7:50 AM,37.4,35.6,93,29.64,10.0,North,4.6,-,0.00,,Overcast,360,2012-03-18 14:50:00
7:53 AM,37.0,35.1,93,29.65,10.0,Variable,4.6,-,0.00,,Overcast,0,2012-03-18 14:53:00
8:53 AM,37.9,35.1,89,29.65,10.0,NE,3.5,-,0.01,,Overcast,40,2012-03-18 15:53:00
9:28 AM,37.4,35.6,93,29.65,5.0,ENE,5.8,-,0.00,Rain,Light Rain,70,2012-03-18 16:28:00
9:48 AM,37.4,35.6,93,29.65,7.0,NNE,3.5,-,0.00,,Overcast,20,2012-03-18 16:48:00
9:53 AM,37.9,36.0,93,29.65,7.0,NNE,3.5,-,0.00,,Overcast,20,2012-03-18 16:53:00
10:53 AM,39.0,35.1,86,29.66,10.0,Variable,4.6,-,0.03,,Overcast,0,2012-03-18 17:53:00
11:53 AM,39.9,35.1,83,29.67,10.0,NE,4.6,-,0.00,Rain,Light Rain,40,2012-03-18 18:53:00
12:51 PM,39.2,35.6,87,29.68,10.0,West,4.6,-,0.00,,Overcast,280,2012-03-18 19:51:00
12:53 PM,39.9,36.0,86,29.68,10.0,West,3.5,-,0.00,,Overcast,280,2012-03-18 19:53:00
1:53 PM,39.9,36.0,86,29.68,10.0,NNW,5.8,-,N/A,,Overcast,330,2012-03-18 20:53:00
2:53 PM,39.2,33.8,81,29.69,10.0,West,6.9,-,N/A,,Overcast,280,2012-03-18 21:53:00
3:53 PM,39.9,35.1,83,29.72,10.0,WNW,3.5,-,0.00,,Mostly Cloudy,290,2012-03-18 22:53:00
4:53 PM,39.9,34.0,79,29.73,10.0,Calm,Calm,-,N/A,,Mostly Cloudy,0,2012-03-18 23:53:00
5:53 PM,41.0,33.1,73,29.75,10.0,West,3.5,-,0.00,,Mostly Cloudy,260,2012-03-19 00:53:00
6:53 PM,39.9,35.1,83,29.76,10.0,SSE,4.6,-,N/A,,Mostly Cloudy,150,2012-03-19 01:53:00
7:53 PM,37.9,35.1,89,29.78,10.0,SE,9.2,-,N/A,,Mostly Cloudy,140,2012-03-19 02:53:00
8:53 PM,36.0,33.1,89,29.81,10.0,SE,10.4,-,N/A,,Scattered Clouds,140,2012-03-19 03:53:00
9:53 PM,34.0,32.0,92,29.83,10.0,SE,5.8,-,N/A,,Clear,130,2012-03-19 04:53:00
10:53 PM,35.1,32.0,89,29.85,10.0,SE,3.5,-,N/A,,Clear,130,2012-03-19 05:53:00
11:53 PM,33.1,30.9,92,29.86,10.0,SE,9.2,-,N/A,,Partly Cloudy,140,2012-03-19 06:53:00